Home > Weather > Kennebunk > Past weeks

Flag for USA Past Weather in Kennebunk, Maine, USA — Yesterday and Last 2 Weeks

Now
55 °F

Mostly cloudy.


Feels Like: 52 °F
Forecast: 53 / 60 °F
Wind: 15 mph from Northeast

Location: Sanford Municipal

Current Time: May 29, 2016 at 7:48:24 AM

Latest Report: May 29, 2016 at 7:15 AM


Visibility: 10 mi

Pressure: 30.25 "Hg

Humidity: 77%

Dew Point: 48 °F

Location of KennebunkLocation

Past Weather in Kennebunk — Graph

°F

Kennebunk Temperature Yesterday

Maximum temperature yesterday: 90 °F (at 12:35 PM)
Minimum temperature yesterday: 50 °F (at 1:35 AM)
Average temperature yesterday: 69 °F

High & Low Weather Summary for the Past Weeks

 TemperatureHumidityPressure
High90 °F (May 28, 12:35 PM)94% (May 24, 1:35 PM)30.24 "Hg (May 24, 1:35 PM)
Low34 °F (May 17, 4:35 AM)23% (May 21, 12:35 PM)29.47 "Hg (May 15, 1:55 AM)
Average59 °F60%29.96 "Hg
* Reported May 14 6:15 AM — May 29 6:35 AM, Kennebunk, Weather by CustomWeather, © 2016

Note: Actual official high and low records may vary slightly from our data, if they occured in-between our weather recording intervals... More about our weather records

Advertising

Kennebunk Weather History for the Previous 24 Hours

Scroll right to see more
 ConditionsComfort  
Time TempWeatherWind HumidityBarometerVisibility
6:35 AM
Sun, May 29
57 °FMostly cloudy.10 mph77%30.24 "Hg10 mi
6:15 AM57 °FOvercast.12 mph72%30.23 "Hg10 mi
5:55 AM57 °FOvercast.9 mph72%30.23 "Hg10 mi
5:35 AM57 °FOvercast.12 mph72%30.22 "Hg10 mi
5:15 AM57 °FOvercast.12 mph72%30.22 "Hg10 mi
4:55 AM57 °FMostly cloudy.9 mph72%30.21 "Hg10 mi
4:35 AM57 °FOvercast.10 mph77%30.21 "Hg10 mi
4:15 AM57 °FOvercast.13 mph77%30.21 "Hg10 mi
3:55 AM57 °FOvercast.13 mph77%30.20 "Hg10 mi
3:35 AM57 °FOvercast.15 mph82%30.20 "Hg10 mi
3:15 AM57 °FOvercast.12 mph82%30.20 "Hg10 mi
2:55 AM57 °FLow clouds.15 mph82%30.20 "Hg10 mi
2:35 AM59 °FLow clouds.13 mph77%30.19 "Hg10 mi
2:15 AM61 °FLow clouds.13 mph77%30.19 "Hg10 mi
1:55 AM61 °FLow clouds.8 mph77%30.18 "Hg9 mi
1:35 AM61 °FLow clouds.10 mph83%30.18 "Hg8 mi
1:15 AM61 °FLow clouds.10 mph83%30.17 "Hg8 mi
12:55 AM61 °FLow clouds.9 mph83%30.17 "Hg8 mi
12:35 AM61 °FLow clouds.6 mph83%30.17 "Hg7 mi
12:15 AM61 °FLow clouds.8 mph83%30.16 "Hg7 mi
11:55 PM
Sat, May 28
61 °FLow clouds.7 mph83%30.16 "Hg8 mi
11:35 PM61 °FPassing clouds.8 mph83%30.15 "Hg8 mi
11:15 PM61 °FClear.7 mph83%30.15 "Hg8 mi
10:55 PM63 °FClear.8 mph77%30.15 "Hg9 mi
10:35 PM63 °FClear.9 mph77%30.14 "Hg10 mi
9:55 PM64 °FClear.12 mph78%30.13 "Hg10 mi
9:35 PM70 °FPassing clouds.10 mph73%30.12 "Hg10 mi
9:15 PM72 °FPassing clouds.7 mph73%30.11 "Hg10 mi
8:55 PM72 °FPartly sunny.No wind73%30.10 "Hg3 mi
8:35 PM72 °FScattered clouds.3 mph73%30.09 "Hg2 mi
8:15 PM72 °FPassing clouds.5 mph73%30.08 "Hg4 mi
7:55 PM73 °FSunny.No wind69%30.08 "Hg6 mi
7:35 PM75 °FSunny.No wind65%30.08 "Hg5 mi
7:15 PM77 °FSunny.3 mph61%30.08 "Hg7 mi
6:55 PM79 °FSunny.5 mph58%30.07 "Hg10 mi
6:35 PM79 °FSunny.3 mph61%30.07 "Hg10 mi
6:15 PM79 °FSunny.5 mph61%30.07 "Hg10 mi
5:55 PM81 °FSunny.8 mph58%30.07 "Hg9 mi
5:35 PM81 °FSunny.7 mph58%30.06 "Hg10 mi
5:15 PM82 °FSunny.5 mph55%30.06 "Hg10 mi
4:55 PM82 °FSunny.8 mph55%30.05 "Hg10 mi
4:35 PM84 °FPassing clouds.5 mph51%30.05 "Hg10 mi
4:15 PM84 °FPassing clouds.8 mph51%30.05 "Hg10 mi
3:55 PM84 °FSunny.9 mph51%30.05 "Hg10 mi
3:35 PM88 °FSunny.8 mph46%30.04 "Hg10 mi
3:15 PM88 °FPassing clouds.7 mph46%30.04 "Hg10 mi
2:55 PM86 °FPassing clouds.7 mph49%30.04 "Hg10 mi
2:15 PM88 °FPartly sunny.6 mph46%30.05 "Hg10 mi
1:55 PM88 °FBroken clouds.8 mph46%30.05 "Hg10 mi
1:15 PM88 °FPartly sunny.3 mph46%30.05 "Hg9 mi
12:55 PM88 °FScattered clouds.7 mph49%30.05 "Hg10 mi
12:35 PM90 °FPartly sunny.No wind46%30.06 "Hg10 mi
12:15 PM88 °FPartly sunny.5 mph46%30.06 "Hg10 mi
11:55 AM88 °FScattered clouds.7 mph46%30.06 "Hg10 mi
11:35 AM88 °FSunny.6 mph49%30.07 "Hg10 mi
10:55 AM84 °FSunny.3 mph51%30.07 "Hg10 mi
10:35 AM84 °FSunny.No wind51%30.07 "Hg10 mi
10:15 AM82 °FSunny.3 mph55%30.07 "Hg10 mi
9:55 AM82 °FSunny.3 mph58%30.06 "Hg10 mi
9:35 AM79 °FSunny.3 mph61%30.07 "Hg10 mi
9:15 AM75 °FSunny.No wind65%30.07 "Hg9 mi
8:55 AM75 °FPassing clouds.No wind65%30.07 "Hg10 mi
8:35 AM70 °FScattered clouds.No wind73%30.07 "Hg10 mi
8:15 AM64 °FScattered clouds.No wind78%30.07 "Hg10 mi
7:55 AM63 °FPartly sunny.No wind73%30.06 "Hg10 mi
7:35 AM61 °FScattered clouds.No wind77%30.06 "Hg10 mi
7:15 AM61 °FSunny.No wind77%30.06 "Hg10 mi
Weather by CustomWeather, © 2016

See weather overviewHow to use our weather pages